Flag Weather past 2 weeks in Chennai, Tamil Nadu, India

Now
73 °F

Fog.


Feels Like: 72 °F
Forecast: 75 / 82 °F
Wind: 3 mph from Northwest

Location: Madras / Minambakkam

Current Time: Nov 27, 2014 at 6:23:39 AM

Latest Report: Nov 27, 2014 at 5:40 AM


Visibility: 2 mi

Pressure: 29.80 "Hg

Humidity: 89%

Dew point: 70 °F

Location of ChennaiLocation

Historic Weather in Chennai — Graph

°F

Chennai temperature yesterday

Maximum temperature yesterday: 84 °F (at 10:40 AM)
Minimum temperature yesterday: 73 °F (at 1:10 AM)
Average temperature yesterday: 78 °F

Past Weeks' High & Low Weather Summary

 TemperatureHumidityPressure
High88 °F (Nov 14, 12:40 PM)100% (Nov 12, 7:10 AM)29.98 "Hg (Nov 12, 7:10 AM)
Low73 °F (Nov 23, 3:40 AM)52% (Nov 16, 1:40 PM)29.77 "Hg (Nov 12, 4:40 AM)
Average80 °F82%29.87 "Hg
* Reported Nov 12 4:40 AM — Nov 27 4:40 AM, Chennai, Weather by CustomWeather, © 2014

Note: Actual official high and low records may vary slightly from our data, if they occured in-between our weather recording intervals... More about our weather records

Advertising

Chennai weather history for previous 24 hours

 ConditionsComfort  
Time TempWeatherWind HumidityBarometerVisibility
4:40 AM
Nov 27
73 °FHaze.No wind89%29.77 "Hg2 mi
4:10 AM73 °FFog.No wind89%29.77 "Hg2 mi
3:40 AM73 °FFog.No wind89%29.77 "Hg2 mi
2:40 AM73 °FFog.No wind89%29.77 "Hg3 mi
2:10 AM73 °FFog.No wind89%29.80 "Hg3 mi
1:40 AM75 °FFog.No wind83%29.80 "Hg3 mi
1:10 AM75 °FFog.No wind83%29.83 "Hg3 mi
12:40 AM75 °FFog.No wind83%29.83 "Hg3 mi
12:10 AM75 °FFog.No wind83%29.83 "Hg3 mi
11:40 PM
Nov 26
75 °FPassing clouds.No wind78%29.83 "Hg4 mi
11:10 PM77 °FPassing clouds.No wind74%29.83 "Hg4 mi
10:40 PM77 °FPassing clouds.No wind74%29.86 "Hg4 mi
10:10 PM77 °FPassing clouds.3 mph74%29.86 "Hg4 mi
9:40 PM77 °FPassing clouds.5 mph74%29.86 "Hg4 mi
9:10 PM77 °FPassing clouds.5 mph74%29.86 "Hg4 mi
8:40 PM77 °FPassing clouds.6 mph74%29.86 "Hg4 mi
7:40 PM79 °FPassing clouds.6 mph70%29.86 "Hg3 mi
7:10 PM79 °FPassing clouds.7 mph74%29.83 "Hg3 mi
6:40 PM79 °FPassing clouds.7 mph74%29.83 "Hg3 mi
6:10 PM79 °FPassing clouds.7 mph70%29.80 "Hg3 mi
5:40 PM81 °FScattered clouds.7 mph70%29.80 "Hg3 mi
5:10 PM81 °FScattered clouds.12 mph70%29.77 "Hg3 mi
4:40 PM82 °FScattered clouds.9 mph66%29.77 "Hg3 mi
4:10 PM82 °FScattered clouds.9 mph62%29.77 "Hg3 mi
3:40 PM82 °FScattered clouds.9 mph62%29.77 "Hg3 mi
3:10 PM82 °FScattered clouds.9 mph66%29.77 "Hg3 mi
2:40 PM84 °FScattered clouds.9 mph62%29.77 "Hg4 mi
2:10 PM84 °FScattered clouds.12 mph58%29.77 "Hg4 mi
1:40 PM84 °FScattered clouds.12 mph58%29.77 "Hg4 mi
1:10 PM84 °FScattered clouds.14 mph58%29.80 "Hg4 mi
12:40 PM84 °FScattered clouds.9 mph58%29.80 "Hg4 mi
11:40 AM84 °FScattered clouds.9 mph58%29.83 "Hg4 mi
10:40 AM84 °FScattered clouds.9 mph58%29.89 "Hg3 mi
9:40 AM81 °FScattered clouds.5 mph70%29.89 "Hg2 mi
8:40 AM79 °FFog.6 mph79%29.89 "Hg1 mi
8:10 AM77 °FFog.6 mph83%29.86 "Hg1 mi
7:40 AM75 °FFog.3 mph83%29.86 "Hg1 mi
7:10 AM73 °FFog.3 mph89%29.83 "Hg1 mi
6:40 AM73 °FFog.3 mph89%29.83 "Hg1 mi
6:10 AM73 °FFog.3 mph89%29.80 "Hg1 mi
Weather by CustomWeather, © 2014

See weather overviewHow to use our weather pages